timestamp,wind_dir_avg,wind_spd_avg,wind_spd_max_dir,wind_spd_gust,battery_voltage,lat,long
2021-11-27 00:04:00+00:00,105.0,1.65,115.0,2.21,12.57,47.59359,-54.27349
2021-11-27 00:14:01+00:00,129.0,1.6,135.0,1.93,12.57,47.59359,-54.27349
2021-11-27 00:24:01+00:00,148.0,1.84,155.0,2.24,12.57,47.59359,-54.27349
2021-11-27 00:34:01+00:00,176.0,1.03,178.0,1.26,12.57,47.59359,-54.27349
2021-11-27 00:44:01+00:00,237.0,0.6,243.0,0.81,12.57,47.59359,-54.27349
2021-11-27 00:54:01+00:00,220.0,1.78,227.0,2.25,12.57,47.59359,-54.27349
2021-11-27 01:04:01+00:00,229.0,1.98,243.0,3.07,12.57,47.59359,-54.27349
2021-11-27 01:14:00+00:00,212.0,1.29,192.0,2.62,12.57,47.59359,-54.27349
2021-11-27 01:24:00+00:00,180.0,2.85,153.0,3.61,12.57,47.59359,-54.27349
2021-11-27 01:34:00+00:00,221.0,5.09,219.0,5.61,12.57,47.59359,-54.27349
2021-11-27 01:44:00+00:00,215.0,6.64,215.0,7.2,12.57,47.59359,-54.27349
2021-11-27 01:54:00+00:00,213.0,6.7,214.0,7.42,12.57,47.59359,-54.27349
2021-11-27 02:04:00+00:00,207.0,4.27,207.0,4.54,12.57,47.59359,-54.27349
2021-11-27 02:14:00+00:00,211.0,3.94,206.0,4.39,12.57,47.59359,-54.27349
2021-11-27 02:24:00+00:00,210.0,3.47,204.0,4.0,12.57,47.59359,-54.27349
2021-11-27 02:34:00+00:00,204.0,5.04,204.0,5.42,12.57,47.59359,-54.27349
2021-11-27 02:44:00+00:00,207.0,5.01,210.0,5.61,12.57,47.59359,-54.27349
2021-11-27 02:54:00+00:00,205.0,3.61,203.0,4.27,12.57,47.59359,-54.27349
2021-11-27 03:04:00+00:00,209.0,4.21,213.0,4.68,12.57,47.59359,-54.27349
2021-11-27 03:14:00+00:00,211.0,5.25,213.0,5.8,12.57,47.59359,-54.27349
2021-11-27 03:24:00+00:00,202.0,6.09,205.0,6.69,12.57,47.59359,-54.27349
2021-11-27 03:34:00+00:00,208.0,6.88,205.0,7.66,12.57,47.59359,-54.27349
2021-11-27 03:44:00+00:00,200.0,7.69,200.0,8.29,12.57,47.59359,-54.27349
2021-11-27 03:54:00+00:00,207.0,7.3,209.0,7.96,12.57,47.59359,-54.27349
2021-11-27 04:04:00+00:00,205.0,7.23,206.0,7.83,12.57,47.59359,-54.27349
2021-11-27 04:14:00+00:00,200.0,6.85,196.0,7.51,12.57,47.59359,-54.27349
2021-11-27 04:24:00+00:00,205.0,6.58,207.0,7.35,12.57,47.59359,-54.27349
2021-11-27 04:34:00+00:00,205.0,6.82,205.0,7.59,12.57,47.59359,-54.27349
2021-11-27 04:44:00+00:00,211.0,6.79,209.0,7.6,12.57,47.59359,-54.27349
2021-11-27 04:54:00+00:00,217.0,7.38,217.0,8.14,12.57,47.59359,-54.27349
2021-11-27 05:04:00+00:00,228.0,4.75,231.0,5.47,12.57,47.59359,-54.27349
2021-11-27 05:14:01+00:00,219.0,4.19,213.0,5.0,12.49,47.59359,-54.27349
2021-11-27 05:24:01+00:00,229.0,4.88,239.0,5.9,12.49,47.59359,-54.27349
2021-11-27 05:34:01+00:00,227.0,5.81,230.0,6.66,12.49,47.59359,-54.27349
2021-11-27 05:44:01+00:00,235.0,5.6,240.0,6.19,12.49,47.59359,-54.27349
2021-11-27 05:54:01+00:00,221.0,4.98,213.0,5.91,12.49,47.59359,-54.27349
2021-11-27 06:04:01+00:00,214.0,6.04,211.0,6.97,12.49,47.59359,-54.27349
2021-11-27 06:14:00+00:00,223.0,5.39,224.0,6.29,12.49,47.59359,-54.27349
2021-11-27 06:24:00+00:00,217.0,5.26,215.0,6.03,12.49,47.59359,-54.27349
2021-11-27 06:34:00+00:00,225.0,4.7,229.0,5.67,12.49,47.59359,-54.27349
2021-11-27 06:44:00+00:00,217.0,5.62,224.0,6.28,12.49,47.59359,-54.27349
2021-11-27 06:54:00+00:00,217.0,5.74,222.0,7.11,12.49,47.59359,-54.27349
2021-11-27 07:04:00+00:00,217.0,6.9,218.0,7.4,12.49,47.59359,-54.27349
2021-11-27 07:14:00+00:00,215.0,6.9,216.0,7.45,12.49,47.59359,-54.27349
2021-11-27 07:24:00+00:00,229.0,4.98,221.0,6.0,12.49,47.59359,-54.27349
2021-11-27 07:34:00+00:00,211.0,6.79,215.0,7.53,12.49,47.59359,-54.27349
2021-11-27 07:44:00+00:00,219.0,6.48,227.0,8.03,12.49,47.59359,-54.27349
2021-11-27 07:54:00+00:00,233.0,7.54,232.0,7.99,12.49,47.59359,-54.27349
2021-11-27 08:04:00+00:00,216.0,5.51,220.0,6.26,12.49,47.59359,-54.27349
2021-11-27 08:14:01+00:00,211.0,6.53,212.0,7.49,12.49,47.59359,-54.27349
2021-11-27 08:24:01+00:00,213.0,5.79,221.0,6.59,12.49,47.59359,-54.27349
2021-11-27 08:34:01+00:00,226.0,6.39,231.0,7.91,12.49,47.59359,-54.27349
2021-11-27 08:44:01+00:00,217.0,5.61,216.0,6.32,12.49,47.59359,-54.27349
2021-11-27 08:54:01+00:00,214.0,5.86,206.0,8.39,12.49,47.59359,-54.27349
2021-11-27 09:04:01+00:00,230.0,4.85,226.0,5.33,12.49,47.59359,-54.27349
2021-11-27 09:14:00+00:00,226.0,6.46,219.0,7.37,12.49,47.59359,-54.27349
2021-11-27 09:24:00+00:00,213.0,5.94,213.0,6.55,12.49,47.59359,-54.27349
2021-11-27 09:34:00+00:00,205.0,6.49,205.0,7.57,12.49,47.59359,-54.27349
2021-11-27 09:44:00+00:00,212.0,7.78,210.0,9.24,12.49,47.59359,-54.27349
2021-11-27 09:54:00+00:00,212.0,8.85,215.0,9.94,12.49,47.59359,-54.27349
2021-11-27 10:04:00+00:00,210.0,7.58,210.0,8.16,12.49,47.59359,-54.27349
2021-11-27 10:14:00+00:00,212.0,8.11,212.0,9.78,12.41,47.59359,-54.27349
2021-11-27 10:24:00+00:00,210.0,8.86,213.0,9.75,12.41,47.59359,-54.27349
2021-11-27 10:34:00+00:00,212.0,9.47,213.0,10.5,12.41,47.59359,-54.27349
2021-11-27 10:44:00+00:00,214.0,9.28,206.0,11.58,12.41,47.59359,-54.27349
2021-11-27 10:54:00+00:00,221.0,6.54,222.0,7.72,12.41,47.59359,-54.27349
2021-11-27 11:04:00+00:00,183.0,9.43,183.0,11.75,12.41,47.59359,-54.27349
2021-11-27 11:14:00+00:00,179.0,10.52,196.0,11.86,12.41,47.59359,-54.27349
2021-11-27 11:24:00+00:00,184.0,10.98,183.0,12.49,12.41,47.59359,-54.27349
2021-11-27 11:34:00+00:00,194.0,10.99,200.0,13.48,12.41,47.59359,-54.27349
2021-11-27 11:44:00+00:00,185.0,11.06,199.0,12.68,12.41,47.59359,-54.27349
2021-11-27 11:54:00+00:00,191.0,9.84,196.0,11.53,12.41,47.59359,-54.27349
2021-11-27 12:04:00+00:00,195.0,9.94,197.0,11.35,12.41,47.59359,-54.27349
2021-11-27 12:14:00+00:00,194.0,11.05,195.0,12.23,12.81,47.59359,-54.27349
2021-11-27 12:24:00+00:00,193.0,11.77,190.0,13.54,12.81,47.59359,-54.27349
2021-11-27 12:34:00+00:00,186.0,10.09,178.0,11.91,12.81,47.59359,-54.27349
2021-11-27 12:44:00+00:00,196.0,10.36,197.0,12.05,12.81,47.59359,-54.27349
2021-11-27 12:54:00+00:00,199.0,10.63,200.0,11.74,12.81,47.59359,-54.27349
2021-11-27 13:04:00+00:00,189.0,10.72,200.0,12.45,12.81,47.59359,-54.27349
2021-11-27 13:14:01+00:00,190.0,11.84,195.0,13.47,12.97,47.59359,-54.27349
2021-11-27 13:24:01+00:00,175.0,10.85,178.0,12.27,12.97,47.59359,-54.27349
2021-11-27 13:34:01+00:00,178.0,10.48,178.0,12.19,12.97,47.59359,-54.27349
2021-11-27 13:44:01+00:00,175.0,10.96,170.0,12.07,12.97,47.59359,-54.27349
2021-11-27 13:54:01+00:00,178.0,10.47,174.0,11.53,12.97,47.59359,-54.27349
2021-11-27 14:04:01+00:00,179.0,9.48,182.0,10.95,12.97,47.59359,-54.27349
2021-11-27 14:14:00+00:00,170.0,10.04,168.0,12.06,13.53,47.59359,-54.27349
2021-11-27 14:24:00+00:00,171.0,11.5,180.0,13.01,13.53,47.59359,-54.27349
2021-11-27 14:34:00+00:00,172.0,11.91,169.0,13.96,13.53,47.59359,-54.27349
2021-11-27 14:44:00+00:00,175.0,11.26,172.0,12.92,13.53,47.59359,-54.27349
2021-11-27 14:54:00+00:00,177.0,10.86,171.0,12.64,13.53,47.59359,-54.27349
2021-11-27 15:04:00+00:00,176.0,10.33,178.0,11.99,13.53,47.59359,-54.27349
2021-11-27 15:14:00+00:00,172.0,10.4,179.0,12.78,13.05,47.59359,-54.27349
2021-11-27 15:24:00+00:00,170.0,10.78,172.0,12.12,13.05,47.59359,-54.27349
2021-11-27 15:34:00+00:00,166.0,10.77,169.0,12.27,13.05,47.59359,-54.27349
2021-11-27 15:44:00+00:00,170.0,10.86,168.0,12.03,13.05,47.59359,-54.27349
2021-11-27 15:54:00+00:00,174.0,8.85,179.0,10.5,13.05,47.59359,-54.27349
2021-11-27 16:04:00+00:00,166.0,9.0,164.0,10.18,13.05,47.59359,-54.27349
2021-11-27 16:14:01+00:00,162.0,11.42,164.0,12.86,12.89,47.59359,-54.27349
2021-11-27 16:24:01+00:00,145.0,15.12,143.0,16.95,12.89,47.59359,-54.27349
2021-11-27 16:34:01+00:00,143.0,14.18,142.0,16.82,12.89,47.59359,-54.27349
2021-11-27 16:44:01+00:00,155.0,13.21,144.0,15.75,12.89,47.59359,-54.27349
2021-11-27 16:54:01+00:00,147.0,13.91,146.0,16.53,12.89,47.59359,-54.27349
2021-11-27 17:04:01+00:00,163.0,11.55,147.0,14.81,12.89,47.59359,-54.27349
2021-11-27 17:14:01+00:00,174.0,12.23,170.0,14.24,12.97,47.59359,-54.27349
2021-11-27 17:24:01+00:00,175.0,10.6,172.0,11.67,12.97,47.59359,-54.27349
2021-11-27 17:34:01+00:00,176.0,13.79,170.0,15.59,12.97,47.59359,-54.27349
2021-11-27 17:44:01+00:00,174.0,16.46,171.0,19.32,12.97,47.59359,-54.27349
2021-11-27 17:54:01+00:00,173.0,14.81,177.0,18.02,12.97,47.59359,-54.27349
2021-11-27 18:04:01+00:00,173.0,14.36,172.0,17.06,12.97,47.59359,-54.27349
2021-11-27 18:14:01+00:00,176.0,13.74,191.0,16.06,12.73,47.59359,-54.27349
2021-11-27 18:24:01+00:00,175.0,13.05,172.0,15.84,12.73,47.59359,-54.27349
2021-11-27 18:34:01+00:00,176.0,14.2,170.0,16.19,12.73,47.59359,-54.27349
2021-11-27 18:44:01+00:00,177.0,13.75,180.0,16.05,12.73,47.59359,-54.27349
2021-11-27 18:54:01+00:00,177.0,14.89,170.0,17.01,12.73,47.59359,-54.27349
2021-11-27 19:04:01+00:00,176.0,14.56,178.0,16.57,12.73,47.59359,-54.27349
2021-11-27 19:14:01+00:00,186.0,14.76,200.0,17.64,12.65,47.59359,-54.27349
2021-11-27 19:24:01+00:00,183.0,14.54,175.0,19.46,12.65,47.59359,-54.27349
2021-11-27 19:34:01+00:00,188.0,13.67,203.0,16.47,12.65,47.59359,-54.27349
2021-11-27 19:44:01+00:00,200.0,14.5,206.0,17.12,12.65,47.59359,-54.27349
2021-11-27 19:54:01+00:00,204.0,14.76,208.0,17.09,12.65,47.59359,-54.27349
2021-11-27 20:04:01+00:00,209.0,13.77,203.0,16.15,12.65,47.59359,-54.27349
2021-11-27 20:14:01+00:00,212.0,12.14,212.0,14.51,12.57,47.59359,-54.27349
2021-11-27 20:24:01+00:00,211.0,10.9,210.0,12.71,12.57,47.59359,-54.27349
2021-11-27 20:34:01+00:00,216.0,8.23,214.0,10.09,12.57,47.59359,-54.27349
2021-11-27 20:44:01+00:00,209.0,9.15,209.0,9.98,12.57,47.59359,-54.27349
2021-11-27 20:54:01+00:00,202.0,10.09,198.0,11.68,12.57,47.59359,-54.27349
2021-11-27 21:04:01+00:00,208.0,9.81,205.0,11.26,12.57,47.59359,-54.27349
2021-11-27 21:14:01+00:00,205.0,9.51,206.0,10.41,12.57,47.59359,-54.27349
2021-11-27 21:24:01+00:00,200.0,7.95,198.0,8.89,12.57,47.59359,-54.27349
2021-11-27 21:34:01+00:00,212.0,7.77,211.0,9.1,12.57,47.59359,-54.27349
2021-11-27 21:44:01+00:00,212.0,9.23,210.0,11.18,12.57,47.59359,-54.27349
2021-11-27 21:54:01+00:00,211.0,10.25,215.0,11.74,12.57,47.59359,-54.27349
2021-11-27 22:04:01+00:00,211.0,7.94,210.0,8.86,12.57,47.59359,-54.27349
2021-11-27 22:14:01+00:00,199.0,7.08,202.0,7.78,12.49,47.59359,-54.27349
2021-11-27 22:24:01+00:00,210.0,9.39,209.0,10.45,12.49,47.59359,-54.27349
2021-11-27 22:34:01+00:00,221.0,7.8,222.0,8.88,12.49,47.59359,-54.27349
2021-11-27 22:44:01+00:00,212.0,9.91,215.0,11.49,12.49,47.59359,-54.27349
2021-11-27 22:54:01+00:00,217.0,7.06,216.0,7.8,12.49,47.59359,-54.27349
2021-11-27 23:04:01+00:00,207.0,6.11,206.0,6.86,12.49,47.59359,-54.27349
2021-11-27 23:14:01+00:00,195.0,6.17,196.0,6.68,12.49,47.59359,-54.27349
2021-11-27 23:24:01+00:00,206.0,4.87,204.0,5.37,12.49,47.59359,-54.27349
2021-11-27 23:34:01+00:00,210.0,6.06,212.0,6.74,12.49,47.59359,-54.27349
2021-11-27 23:44:01+00:00,215.0,6.29,211.0,7.26,12.49,47.59359,-54.27349
2021-11-27 23:54:01+00:00,219.0,5.48,218.0,5.87,12.49,47.59359,-54.27349
